Tracking 28531 objects as of 26-Feb-2024
HD Live streaming from Space Station
objects crossing your sky now

ONEWEB-0292

Track ONEWEB-0292 now!
10-day predictions
ONEWEB-0292 is classified as:


NORAD ID: 49186
Int'l Code: 2021-083A
Perigee: 1,215.3 km
Apogee: 1,218.5 km
Inclination: 87.9 °
Period: 109.6 minutes
Semi major axis: 7587 km
RCS: Unknown
Launch date: September 14, 2021
Source: United Kingdom (UK)
Launch site: TYURATAM MISSILE AND SPACE COMPLEX (TTMTR)
Your satellite tracking list
Your tracking list is empty




NASA's NSSDC Master Catalog

Two Line Element Set (TLE):
1 49186U 21083A   24056.94480949  .00000294  00000-0  76927-3 0  9995
2 49186  87.8978 127.9188 0002059 105.6705 254.4652 13.13469079120366
Source of the keplerian elements: AFSPC